Погода в Навбахоре

Узбекистан     40°46′42″N   71°03′54″E
темп.,
°C
ветер,
м/с
пор.,
м/с
влажн.,
%
обл.,
%
осадки,
мм/ч
давл.,
гПа
погр.,
м
6 августа, пт
пт623:00+26св224298 0.4 100321
02:00+24в335041 0.1 100455
05:00+23всв115060 0.1 100516
08:00+29в23305 0.0 1005434
11:00+37в11172 0.0 10031448
14:00+40зюз44130 0.0 10002840
17:00+40зюз65140 0.0 9993040
20:00+32юз51125100 0.0 1001305
7 августа, сб
сб723:00+27вюв3539100 0.0 100496
02:00+24ссв1144100 0.0 100426
05:00+24юв11460 0.0 100517
08:00+29в21310 0.0 1006398
11:00+37ююз01190 0.0 10041229
14:00+41юз44120 0.0 10012629
17:00+41зюз65120 0.0 10002667
20:00+34юз7131760 0.0 1001411
8 августа, вс
вс823:00+27всв453198 0.0 100467
02:00+25в223523 0.0 100524
05:00+24юв113996 0.0 100616
08:00+30в12260 0.0 1007326
11:00+38ю11150 0.0 10051335
14:00+42зюз4490 0.0 10032701
17:00+42юз6580 0.0 10012961
20:00+35юз48110 0.0 1002151
9 августа, пн
пн923:00+29юз12150 0.0 100321
02:00+25всв33220 0.0 100426
05:00+24юв11270 0.0 100519
08:00+30зюз34190 0.0 1006403
11:00+39зюз66110 0.0 10041291
14:00+42з91170 0.0 10023700
17:00+40зюз91060 0.0 10022262
20:00+34зюз916100 0.0 1003425
10 августа, вт
вт1023:00+29зюз713160 0.0 1004295
02:00+26зюз48180 0.0 1006173
05:00+23юз22220 0.0 100722
08:00+30зюз12150 0.0 1008518
11:00+36з33100 0.0 10061598
14:00+39зюз4480 0.0 10031934
17:00+39зюз6680 0.0 10011820
20:00+32юз59100 0.0 1002202